Tracking 25710 objects as of 6-Jul-2022
HD Live streaming from Space Station
objects crossing your sky now

STARLINK-3713

Track STARLINK-3713 now!
10-day predictions
STARLINK-3713 is classified as:


NORAD ID: 52091
Int'l Code: 2022-029D
Perigee: 545.7 km
Apogee: 547.9 km
Inclination: 53.2 °
Period: 95.4 minutes
Semi major axis: 6917 km
RCS: Unknown
Launch date: March 19, 2022
Source: United States (US)
Launch site: AIR FORCE EASTERN TEST RANGE (AFETR)
aabbcc
Your satellite tracking list
Your tracking list is empty




NASA's NSSDC Master Catalog

Two Line Element Set (TLE):
1 52091U 22029D   22187.58334491 -.00018980  00000-0 -11769-2 0  9993
2 52091  53.2157 354.0657 0001580  61.3783 219.5229 15.08860063 18033
Source of the keplerian elements: AFSPC